Year,Month,Day,Hour,Minute,Value (Times are PST for temperature in C)
2012,07,15,00,00,16.40
2012,07,15,00,01,16.40
2012,07,15,00,02,16.40
2012,07,15,00,03,16.30
2012,07,15,00,04,16.30
2012,07,15,00,05,16.30
2012,07,15,00,06,16.20
2012,07,15,00,07,16.20
2012,07,15,00,08,16.10
2012,07,15,00,09,16.10
2012,07,15,00,10,16.10
2012,07,15,00,11,16.00
2012,07,15,00,12,16.00
2012,07,15,00,13,15.90
2012,07,15,00,14,15.90
2012,07,15,00,15,15.90
2012,07,15,00,16,15.80
2012,07,15,00,17,15.80
2012,07,15,00,18,15.80
2012,07,15,00,19,15.80
2012,07,15,00,20,15.70
2012,07,15,00,21,15.70
2012,07,15,00,22,15.70
2012,07,15,00,23,15.70
2012,07,15,00,24,15.60
2012,07,15,00,25,15.60
2012,07,15,00,26,15.60
2012,07,15,00,27,15.60
2012,07,15,00,28,15.50
2012,07,15,00,29,15.50
2012,07,15,00,30,15.50
2012,07,15,00,31,15.50
2012,07,15,00,32,15.40
2012,07,15,00,33,15.40
2012,07,15,00,34,15.40
2012,07,15,00,35,15.30
2012,07,15,00,36,15.30
2012,07,15,00,37,15.30
2012,07,15,00,38,15.30
2012,07,15,00,39,15.30
2012,07,15,00,40,15.20
2012,07,15,00,41,15.20
2012,07,15,00,42,15.20
2012,07,15,00,43,15.20
2012,07,15,00,44,15.20
2012,07,15,00,45,15.10
2012,07,15,00,46,15.10
2012,07,15,00,47,15.10
2012,07,15,00,48,15.10
2012,07,15,00,49,15.10
2012,07,15,00,50,15.00
2012,07,15,00,51,15.00
2012,07,15,00,52,15.00
2012,07,15,00,53,15.00
2012,07,15,00,54,14.90
2012,07,15,00,55,14.90
2012,07,15,00,56,14.90
2012,07,15,00,57,14.90
2012,07,15,00,58,14.80
2012,07,15,00,59,14.80
2012,07,15,01,00,14.80
2012,07,15,01,01,14.80
2012,07,15,01,02,14.80
2012,07,15,01,03,14.70
2012,07,15,01,04,14.70
2012,07,15,01,05,14.70
2012,07,15,01,06,14.70
2012,07,15,01,07,14.70
2012,07,15,01,08,14.70
2012,07,15,01,09,14.70
2012,07,15,01,10,14.70
2012,07,15,01,11,14.60
2012,07,15,01,12,14.60
2012,07,15,01,13,14.60
2012,07,15,01,14,14.60
2012,07,15,01,15,14.60
2012,07,15,01,16,14.60
2012,07,15,01,17,14.50
2012,07,15,01,18,14.50
2012,07,15,01,19,14.50
2012,07,15,01,20,14.50
2012,07,15,01,21,14.40
2012,07,15,01,22,14.40
2012,07,15,01,23,14.40
2012,07,15,01,24,14.40
2012,07,15,01,25,14.40
2012,07,15,01,26,14.30
2012,07,15,01,27,14.30
2012,07,15,01,28,14.30
2012,07,15,01,29,14.30
2012,07,15,01,30,14.30
2012,07,15,01,31,14.30
2012,07,15,01,32,14.30
2012,07,15,01,33,14.30
2012,07,15,01,34,14.30
2012,07,15,01,35,14.20
2012,07,15,01,36,14.20
2012,07,15,01,37,14.20
2012,07,15,01,38,14.20
2012,07,15,01,39,14.20
2012,07,15,01,40,14.20
2012,07,15,01,41,14.20
2012,07,15,01,42,14.20
2012,07,15,01,43,14.20
2012,07,15,01,44,14.20
2012,07,15,01,45,14.20
2012,07,15,01,46,14.10
2012,07,15,01,47,14.10
2012,07,15,01,48,14.10
2012,07,15,01,49,14.10
2012,07,15,01,50,14.10
2012,07,15,01,51,14.10
2012,07,15,01,52,14.10
2012,07,15,01,53,14.10
2012,07,15,01,54,14.10
2012,07,15,01,55,14.10
2012,07,15,01,56,14.10
2012,07,15,01,57,14.10
2012,07,15,01,58,14.10
2012,07,15,01,59,14.10
2012,07,15,02,00,14.10
2012,07,15,02,01,14.10
2012,07,15,02,02,14.10
2012,07,15,02,03,14.10
2012,07,15,02,04,14.10
2012,07,15,02,05,14.10
2012,07,15,02,06,14.10
2012,07,15,02,07,14.10
2012,07,15,02,08,14.00
2012,07,15,02,09,14.00
2012,07,15,02,10,14.00
2012,07,15,02,11,14.00
2012,07,15,02,12,14.00
2012,07,15,02,13,14.00
2012,07,15,02,14,13.90
2012,07,15,02,15,13.90
2012,07,15,02,16,13.90
2012,07,15,02,17,13.90
2012,07,15,02,18,13.90
2012,07,15,02,19,13.90
2012,07,15,02,20,13.90
2012,07,15,02,21,13.90
2012,07,15,02,22,13.90
2012,07,15,02,23,13.90
2012,07,15,02,24,13.80
2012,07,15,02,25,13.80
2012,07,15,02,26,13.80
2012,07,15,02,27,13.80
2012,07,15,02,28,13.80
2012,07,15,02,29,13.80
2012,07,15,02,30,13.80
2012,07,15,02,31,13.80
2012,07,15,02,32,13.80
2012,07,15,02,33,13.80
2012,07,15,02,34,13.80
2012,07,15,02,35,13.80
2012,07,15,02,36,13.80
2012,07,15,02,37,13.80
2012,07,15,02,38,13.80
2012,07,15,02,39,13.80
2012,07,15,02,40,13.80
2012,07,15,02,41,13.80
2012,07,15,02,42,13.70
2012,07,15,02,43,13.70
2012,07,15,02,44,13.70
2012,07,15,02,45,13.70
2012,07,15,02,46,13.70
2012,07,15,02,47,13.70
2012,07,15,02,48,13.70
2012,07,15,02,49,13.70
2012,07,15,02,50,13.70
2012,07,15,02,51,13.70
2012,07,15,02,52,13.70
2012,07,15,02,53,13.60
2012,07,15,02,54,13.60
2012,07,15,02,55,13.60
2012,07,15,02,56,13.60
2012,07,15,02,57,13.60
2012,07,15,02,58,13.60
2012,07,15,02,59,13.60
2012,07,15,03,00,13.50
2012,07,15,03,01,13.50
2012,07,15,03,02,13.50
2012,07,15,03,03,13.40
2012,07,15,03,04,13.40
2012,07,15,03,05,13.40
2012,07,15,03,06,13.40
2012,07,15,03,07,13.40
2012,07,15,03,08,13.40
2012,07,15,03,09,13.40
2012,07,15,03,10,13.40
2012,07,15,03,11,13.30
2012,07,15,03,12,13.30
2012,07,15,03,13,13.30
2012,07,15,03,14,13.30
2012,07,15,03,15,13.30
2012,07,15,03,16,13.30
2012,07,15,03,17,13.30
2012,07,15,03,18,13.30
2012,07,15,03,19,13.30
2012,07,15,03,20,13.30
2012,07,15,03,21,13.30
2012,07,15,03,22,13.30
2012,07,15,03,23,13.30
2012,07,15,03,24,13.30
2012,07,15,03,25,13.20
2012,07,15,03,26,13.20
2012,07,15,03,27,13.20
2012,07,15,03,28,13.20
2012,07,15,03,29,13.20
2012,07,15,03,30,13.20
2012,07,15,03,31,13.20
2012,07,15,03,32,13.20
2012,07,15,03,33,13.10
2012,07,15,03,34,13.10
2012,07,15,03,35,13.10
2012,07,15,03,36,13.10
2012,07,15,03,37,13.10
2012,07,15,03,38,13.10
2012,07,15,03,39,13.10
2012,07,15,03,40,13.10
2012,07,15,03,41,13.10
2012,07,15,03,42,13.10
2012,07,15,03,43,13.00
2012,07,15,03,44,13.00
2012,07,15,03,45,13.00
2012,07,15,03,46,13.00
2012,07,15,03,47,13.00
2012,07,15,03,48,12.90
2012,07,15,03,49,12.90
2012,07,15,03,50,12.90
2012,07,15,03,51,12.90
2012,07,15,03,52,12.90
2012,07,15,03,53,12.90
2012,07,15,03,54,13.00
2012,07,15,03,55,13.00
2012,07,15,03,56,13.00
2012,07,15,03,57,13.00
2012,07,15,03,58,13.00
2012,07,15,03,59,13.10
2012,07,15,04,00,13.10
2012,07,15,04,01,13.10
2012,07,15,04,02,13.10
2012,07,15,04,03,13.10
2012,07,15,04,04,13.20
2012,07,15,04,05,13.30
2012,07,15,04,06,13.30
2012,07,15,04,07,13.40
2012,07,15,04,08,13.50
2012,07,15,04,09,13.60
2012,07,15,04,10,13.60
2012,07,15,04,11,13.70
2012,07,15,04,12,13.70
2012,07,15,04,13,13.80
2012,07,15,04,14,13.80
2012,07,15,04,15,13.80
2012,07,15,04,16,13.80
2012,07,15,04,17,13.90
2012,07,15,04,18,13.90
2012,07,15,04,19,13.90
2012,07,15,04,20,14.00
2012,07,15,04,21,14.00
2012,07,15,04,22,14.00
2012,07,15,04,23,14.10
2012,07,15,04,24,14.10
2012,07,15,04,25,14.10
2012,07,15,04,26,14.10
2012,07,15,04,27,14.10
2012,07,15,04,28,14.10
2012,07,15,04,29,14.10
2012,07,15,04,30,14.10
2012,07,15,04,31,14.10
2012,07,15,04,32,14.10
2012,07,15,04,33,14.10
2012,07,15,04,34,14.10
2012,07,15,04,35,14.10
2012,07,15,04,36,14.10
2012,07,15,04,37,14.10
2012,07,15,04,38,14.10
2012,07,15,04,39,14.10
2012,07,15,04,40,14.10
2012,07,15,04,41,14.10
2012,07,15,04,42,14.10
2012,07,15,04,43,14.10
2012,07,15,04,44,14.00
2012,07,15,04,45,14.00
2012,07,15,04,46,14.00
2012,07,15,04,47,14.00
2012,07,15,04,48,14.00
2012,07,15,04,49,14.10
2012,07,15,04,50,14.10
2012,07,15,04,51,14.20
2012,07,15,04,52,14.20
2012,07,15,04,53,14.20
2012,07,15,04,54,14.20
2012,07,15,04,55,14.20
2012,07,15,04,56,14.30
2012,07,15,04,57,14.30
2012,07,15,04,58,14.30
2012,07,15,04,59,14.30
2012,07,15,05,00,14.30
2012,07,15,05,01,14.30
2012,07,15,05,02,14.20
2012,07,15,05,03,14.20
2012,07,15,05,04,14.20
2012,07,15,05,05,14.20
2012,07,15,05,06,14.10
2012,07,15,05,07,14.10
2012,07,15,05,08,14.10
2012,07,15,05,09,14.00
2012,07,15,05,10,14.00
2012,07,15,05,11,13.90
2012,07,15,05,12,13.90
2012,07,15,05,13,13.90
2012,07,15,05,14,13.90
2012,07,15,05,15,13.90
2012,07,15,05,16,13.90
2012,07,15,05,17,13.90
2012,07,15,05,18,13.90
2012,07,15,05,19,13.90
2012,07,15,05,20,13.90
2012,07,15,05,21,13.90
2012,07,15,05,22,13.90
2012,07,15,05,23,13.90
2012,07,15,05,24,13.90
2012,07,15,05,25,13.90
2012,07,15,05,26,14.00
2012,07,15,05,27,14.00
2012,07,15,05,28,14.00
2012,07,15,05,29,13.90
2012,07,15,05,30,13.90
2012,07,15,05,31,13.90
2012,07,15,05,32,13.80
2012,07,15,05,33,13.80
2012,07,15,05,34,13.70
2012,07,15,05,35,13.70
2012,07,15,05,36,13.70
2012,07,15,05,37,13.60
2012,07,15,05,38,13.60
2012,07,15,05,39,13.60
2012,07,15,05,40,13.50
2012,07,15,05,41,13.40
2012,07,15,05,42,13.40
2012,07,15,05,43,13.30
2012,07,15,05,44,13.30
2012,07,15,05,45,13.30
2012,07,15,05,46,13.20
2012,07,15,05,47,13.20
2012,07,15,05,48,13.10
2012,07,15,05,49,13.10
2012,07,15,05,50,13.10
2012,07,15,05,51,13.00
2012,07,15,05,52,13.00
2012,07,15,05,53,12.90
2012,07,15,05,54,12.90
2012,07,15,05,55,12.90
2012,07,15,05,56,12.90
2012,07,15,05,57,12.90
2012,07,15,05,58,12.90
2012,07,15,05,59,12.80
2012,07,15,06,00,12.80
2012,07,15,06,01,12.80
2012,07,15,06,02,12.80
2012,07,15,06,03,12.80
2012,07,15,06,04,12.80
2012,07,15,06,05,12.80
2012,07,15,06,06,12.80
2012,07,15,06,07,12.80
2012,07,15,06,08,12.70
2012,07,15,06,09,12.70
2012,07,15,06,10,12.70
2012,07,15,06,11,12.70
2012,07,15,06,12,12.60
2012,07,15,06,13,12.60
2012,07,15,06,14,12.60
2012,07,15,06,15,12.60
2012,07,15,06,16,12.60
2012,07,15,06,17,12.60
2012,07,15,06,18,12.60
2012,07,15,06,19,12.60
2012,07,15,06,20,12.60
2012,07,15,06,21,12.60
2012,07,15,06,22,12.60
2012,07,15,06,23,12.60
2012,07,15,06,24,12.60
2012,07,15,06,25,12.60
2012,07,15,06,26,12.60
2012,07,15,06,27,12.50
2012,07,15,06,28,12.50
2012,07,15,06,29,12.50
2012,07,15,06,30,12.40
2012,07,15,06,31,12.40
2012,07,15,06,32,12.40
2012,07,15,06,33,12.40
2012,07,15,06,34,12.40
2012,07,15,06,35,12.40
2012,07,15,06,36,12.40
2012,07,15,06,37,12.40
2012,07,15,06,38,12.30
2012,07,15,06,39,12.30
2012,07,15,06,40,12.30
2012,07,15,06,41,12.30
2012,07,15,06,42,12.30
2012,07,15,06,43,12.30
2012,07,15,06,44,12.30
2012,07,15,06,45,12.30
2012,07,15,06,46,12.30
2012,07,15,06,47,12.30
2012,07,15,06,48,12.30
2012,07,15,06,49,12.30
2012,07,15,06,50,12.30
2012,07,15,06,51,12.40
2012,07,15,06,52,12.40
2012,07,15,06,53,12.40
2012,07,15,06,54,12.50
2012,07,15,06,55,12.50
2012,07,15,06,56,12.50
2012,07,15,06,57,12.60
2012,07,15,06,58,12.60
2012,07,15,06,59,12.60
2012,07,15,07,00,12.60
2012,07,15,07,01,12.60
2012,07,15,07,02,12.60
2012,07,15,07,03,12.60
2012,07,15,07,04,12.60
2012,07,15,07,05,12.60
2012,07,15,07,06,12.60
2012,07,15,07,07,12.60
2012,07,15,07,08,12.60
2012,07,15,07,09,12.60
2012,07,15,07,10,12.60
2012,07,15,07,11,12.60
2012,07,15,07,12,12.60
2012,07,15,07,13,12.60
2012,07,15,07,14,12.60
2012,07,15,07,15,12.60
2012,07,15,07,16,12.60
2012,07,15,07,17,12.60
2012,07,15,07,18,12.60
2012,07,15,07,19,12.50
2012,07,15,07,20,12.60
2012,07,15,07,21,12.60
2012,07,15,07,22,12.60
2012,07,15,07,23,12.60
2012,07,15,07,24,12.60
2012,07,15,07,25,12.60
2012,07,15,07,26,12.60
2012,07,15,07,27,12.60
2012,07,15,07,28,12.60
2012,07,15,07,29,12.60
2012,07,15,07,30,12.60
2012,07,15,07,31,12.60
2012,07,15,07,32,12.60
2012,07,15,07,33,12.60
2012,07,15,07,34,12.60
2012,07,15,07,35,12.60
2012,07,15,07,36,12.70
2012,07,15,07,37,12.70
2012,07,15,07,38,12.70
2012,07,15,07,39,12.70
2012,07,15,07,40,12.70
2012,07,15,07,41,12.70
2012,07,15,07,42,12.70
2012,07,15,07,43,12.80
2012,07,15,07,44,12.80
2012,07,15,07,45,12.80
2012,07,15,07,46,12.80
2012,07,15,07,47,12.80
2012,07,15,07,48,12.80
2012,07,15,07,49,12.80
2012,07,15,07,50,12.80
2012,07,15,07,51,12.80
2012,07,15,07,52,12.80
2012,07,15,07,53,12.80
2012,07,15,07,54,12.80
2012,07,15,07,55,12.80
2012,07,15,07,56,12.80
2012,07,15,07,57,12.80
2012,07,15,07,58,12.80
2012,07,15,07,59,12.80
2012,07,15,08,00,12.80
2012,07,15,08,01,12.80
2012,07,15,08,02,12.80
2012,07,15,08,03,12.80
2012,07,15,08,04,12.80
2012,07,15,08,05,12.80
2012,07,15,08,06,12.80
2012,07,15,08,07,12.80
2012,07,15,08,08,12.80
2012,07,15,08,09,12.80
2012,07,15,08,10,12.80
2012,07,15,08,11,12.80
2012,07,15,08,12,12.80
2012,07,15,08,13,12.80
2012,07,15,08,14,12.80
2012,07,15,08,15,12.80
2012,07,15,08,16,12.80
2012,07,15,08,17,12.90
2012,07,15,08,18,12.90
2012,07,15,08,19,12.90
2012,07,15,08,20,12.90
2012,07,15,08,21,12.90
2012,07,15,08,22,12.90
2012,07,15,08,23,13.00
2012,07,15,08,24,12.90
2012,07,15,08,25,13.00
2012,07,15,08,26,13.00
2012,07,15,08,27,13.00
2012,07,15,08,28,13.10
2012,07,15,08,29,13.10
2012,07,15,08,30,13.10
2012,07,15,08,31,13.10
2012,07,15,08,32,13.10
2012,07,15,08,33,13.10
2012,07,15,08,34,13.10
2012,07,15,08,35,13.10
2012,07,15,08,36,13.10
2012,07,15,08,37,13.10
2012,07,15,08,38,13.20
2012,07,15,08,39,13.20
2012,07,15,08,40,13.20
2012,07,15,08,41,13.20
2012,07,15,08,42,13.20
2012,07,15,08,43,13.20
2012,07,15,08,44,13.30
2012,07,15,08,45,13.30
2012,07,15,08,46,13.30
2012,07,15,08,47,13.30
2012,07,15,08,48,13.30
2012,07,15,08,49,13.30
2012,07,15,08,50,13.30
2012,07,15,08,51,13.40
2012,07,15,08,52,13.40
2012,07,15,08,53,13.40
2012,07,15,08,54,13.40
2012,07,15,08,55,13.40
2012,07,15,08,56,13.50
2012,07,15,08,57,13.50
2012,07,15,08,58,13.60
2012,07,15,08,59,13.60
2012,07,15,09,00,13.60
2012,07,15,09,01,13.60
2012,07,15,09,02,13.70
2012,07,15,09,03,13.70
2012,07,15,09,04,13.70
2012,07,15,09,05,13.70
2012,07,15,09,06,13.70
2012,07,15,09,07,13.70
2012,07,15,09,08,13.70
2012,07,15,09,09,13.70
2012,07,15,09,10,13.70
2012,07,15,09,11,13.70
2012,07,15,09,12,13.70
2012,07,15,09,13,13.70
2012,07,15,09,14,13.70
2012,07,15,09,15,13.70
2012,07,15,09,16,13.70
2012,07,15,09,17,13.60
2012,07,15,09,18,13.60
2012,07,15,09,19,13.70
2012,07,15,09,20,13.70
2012,07,15,09,21,13.60
2012,07,15,09,22,13.60
2012,07,15,09,23,13.60
2012,07,15,09,24,13.60
2012,07,15,09,25,13.60
2012,07,15,09,26,13.60
2012,07,15,09,27,13.60
2012,07,15,09,28,13.60
2012,07,15,09,29,13.60
2012,07,15,09,30,13.70
2012,07,15,09,31,13.70
2012,07,15,09,32,13.70
2012,07,15,09,33,13.70
2012,07,15,09,34,13.70
2012,07,15,09,35,13.70
2012,07,15,09,36,13.70
2012,07,15,09,37,13.70
2012,07,15,09,38,13.70
2012,07,15,09,39,13.80
2012,07,15,09,40,13.80
2012,07,15,09,41,13.80
2012,07,15,09,42,13.80
2012,07,15,09,43,13.90
2012,07,15,09,44,13.90
2012,07,15,09,45,13.90
2012,07,15,09,46,13.90
2012,07,15,09,47,13.80
2012,07,15,09,48,13.80
2012,07,15,09,49,13.80
2012,07,15,09,50,13.80
2012,07,15,09,51,13.80
2012,07,15,09,52,13.80
2012,07,15,09,53,13.90
2012,07,15,09,54,13.90
2012,07,15,09,55,13.90
2012,07,15,09,56,14.00
2012,07,15,09,57,14.10
2012,07,15,09,58,14.10
2012,07,15,09,59,14.10
2012,07,15,10,00,14.20
2012,07,15,10,01,14.20
2012,07,15,10,02,14.20
2012,07,15,10,03,14.20
2012,07,15,10,04,14.20
2012,07,15,10,05,14.20
2012,07,15,10,06,14.20
2012,07,15,10,07,14.20
2012,07,15,10,08,14.20
2012,07,15,10,09,14.20
2012,07,15,10,10,14.20
2012,07,15,10,11,14.20
2012,07,15,10,12,14.20
2012,07,15,10,13,14.20
2012,07,15,10,14,14.20
2012,07,15,10,15,14.20
2012,07,15,10,16,14.30
2012,07,15,10,17,14.30
2012,07,15,10,18,14.30
2012,07,15,10,19,14.30
2012,07,15,10,20,14.30
2012,07,15,10,21,14.30
2012,07,15,10,22,14.30
2012,07,15,10,23,14.30
2012,07,15,10,24,14.30
2012,07,15,10,25,14.30
2012,07,15,10,26,14.40
2012,07,15,10,27,14.40
2012,07,15,10,28,14.40
2012,07,15,10,29,14.40
2012,07,15,10,30,14.40
2012,07,15,10,31,14.40
2012,07,15,10,32,14.40
2012,07,15,10,33,14.40
2012,07,15,10,34,14.50
2012,07,15,10,35,14.50
2012,07,15,10,36,14.50
2012,07,15,10,37,14.50
2012,07,15,10,38,14.50
2012,07,15,10,39,14.50
2012,07,15,10,40,14.60
2012,07,15,10,41,14.60
2012,07,15,10,42,14.60
2012,07,15,10,43,14.60
2012,07,15,10,44,14.70
2012,07,15,10,45,14.70
2012,07,15,10,46,14.70
2012,07,15,10,47,14.70
2012,07,15,10,48,14.70
2012,07,15,10,49,14.80
2012,07,15,10,50,14.80
2012,07,15,10,51,14.80
2012,07,15,10,52,14.80
2012,07,15,10,53,14.80
2012,07,15,10,54,14.80
2012,07,15,10,55,14.90
2012,07,15,10,56,14.90
2012,07,15,10,57,14.90
2012,07,15,10,58,14.90
2012,07,15,10,59,14.90
2012,07,15,11,00,14.90
2012,07,15,11,01,14.90
2012,07,15,11,02,15.00
2012,07,15,11,03,15.00
2012,07,15,11,04,15.00
2012,07,15,11,05,15.00
2012,07,15,11,06,15.00
2012,07,15,11,07,15.10
2012,07,15,11,08,15.10
2012,07,15,11,09,15.10
2012,07,15,11,10,15.10
2012,07,15,11,11,15.10
2012,07,15,11,12,15.10
2012,07,15,11,13,15.10
2012,07,15,11,14,15.10
2012,07,15,11,15,15.10
2012,07,15,11,16,15.10
2012,07,15,11,17,15.10
2012,07,15,11,18,15.10
2012,07,15,11,19,15.10
2012,07,15,11,20,15.10
2012,07,15,11,21,15.10
2012,07,15,11,22,15.10
2012,07,15,11,23,15.10
2012,07,15,11,24,15.20
2012,07,15,11,25,15.20
2012,07,15,11,26,15.20
2012,07,15,11,27,15.20
2012,07,15,11,28,15.20
2012,07,15,11,29,15.20
2012,07,15,11,30,15.30
2012,07,15,11,31,15.30
2012,07,15,11,32,15.30
2012,07,15,11,33,15.30
2012,07,15,11,34,15.30
2012,07,15,11,35,15.30
2012,07,15,11,36,15.30
2012,07,15,11,37,15.30
2012,07,15,11,38,15.30
2012,07,15,11,39,15.30
2012,07,15,11,40,15.30
2012,07,15,11,41,15.30
2012,07,15,11,42,15.30
2012,07,15,11,43,15.30
2012,07,15,11,44,15.30
2012,07,15,11,45,15.30
2012,07,15,11,46,15.40
2012,07,15,11,47,15.40
2012,07,15,11,48,15.40
2012,07,15,11,49,15.40
2012,07,15,11,50,15.40
2012,07,15,11,51,15.40
2012,07,15,11,52,15.40
2012,07,15,11,53,15.40
2012,07,15,11,54,15.40
2012,07,15,11,55,15.40
2012,07,15,11,56,15.50
2012,07,15,11,57,15.50
2012,07,15,11,58,15.50
2012,07,15,11,59,15.50
2012,07,15,12,00,15.50
2012,07,15,12,01,15.50
2012,07,15,12,02,15.50
2012,07,15,12,03,15.50
2012,07,15,12,04,15.50
2012,07,15,12,05,15.50
2012,07,15,12,06,15.50
2012,07,15,12,07,15.50
2012,07,15,12,08,15.50
2012,07,15,12,09,15.50
2012,07,15,12,10,15.50
2012,07,15,12,11,15.60
2012,07,15,12,12,15.60
2012,07,15,12,13,15.60
2012,07,15,12,14,15.60
2012,07,15,12,15,15.60
2012,07,15,12,16,15.60
2012,07,15,12,17,15.60
2012,07,15,12,18,15.70
2012,07,15,12,19,15.70
2012,07,15,12,20,15.70
2012,07,15,12,21,15.70
2012,07,15,12,22,15.70
2012,07,15,12,23,15.80
2012,07,15,12,24,15.80
2012,07,15,12,25,15.80
2012,07,15,12,26,15.80
2012,07,15,12,27,15.80
2012,07,15,12,28,15.80
2012,07,15,12,29,15.90
2012,07,15,12,30,15.90
2012,07,15,12,31,15.90
2012,07,15,12,32,15.90
2012,07,15,12,33,15.90
2012,07,15,12,34,15.90
2012,07,15,12,35,16.00
2012,07,15,12,36,16.00
2012,07,15,12,37,16.00
2012,07,15,12,38,16.00
2012,07,15,12,39,16.10
2012,07,15,12,40,16.10
2012,07,15,12,41,16.10
2012,07,15,12,42,16.10
2012,07,15,12,43,16.10
2012,07,15,12,44,16.10
2012,07,15,12,45,16.20
2012,07,15,12,46,16.20
2012,07,15,12,47,16.20
2012,07,15,12,48,16.20
2012,07,15,12,49,16.30
2012,07,15,12,50,16.30
2012,07,15,12,51,16.30
2012,07,15,12,52,16.30
2012,07,15,12,53,16.30
2012,07,15,12,54,16.30
2012,07,15,12,55,16.40
2012,07,15,12,56,16.40
2012,07,15,12,57,16.40
2012,07,15,12,58,16.40
2012,07,15,12,59,16.50
2012,07,15,13,00,16.50
2012,07,15,13,01,16.60
2012,07,15,13,02,16.60
2012,07,15,13,03,16.60
2012,07,15,13,04,16.60
2012,07,15,13,05,16.60
2012,07,15,13,06,16.70
2012,07,15,13,07,16.70
2012,07,15,13,08,16.70
2012,07,15,13,09,16.70
2012,07,15,13,10,16.80
2012,07,15,13,11,16.80
2012,07,15,13,12,16.80
2012,07,15,13,13,16.90
2012,07,15,13,14,16.90
2012,07,15,13,15,16.90
2012,07,15,13,16,17.00
2012,07,15,13,17,17.00
2012,07,15,13,18,17.10
2012,07,15,13,19,17.20
2012,07,15,13,20,17.30
2012,07,15,13,21,17.40
2012,07,15,13,22,17.50
2012,07,15,13,23,17.60
2012,07,15,13,24,17.60
2012,07,15,13,25,17.60
2012,07,15,13,26,17.60
2012,07,15,13,27,17.60
2012,07,15,13,28,17.70
2012,07,15,13,29,17.80
2012,07,15,13,30,17.80
2012,07,15,13,31,17.80
2012,07,15,13,32,17.90
2012,07,15,13,33,17.90
2012,07,15,13,34,18.00
2012,07,15,13,35,18.10
2012,07,15,13,36,18.20
2012,07,15,13,37,18.20
2012,07,15,13,38,18.20
2012,07,15,13,39,18.30
2012,07,15,13,40,18.30
2012,07,15,13,41,18.30
2012,07,15,13,42,18.40
2012,07,15,13,43,18.50
2012,07,15,13,44,18.50
2012,07,15,13,45,18.50
2012,07,15,13,46,18.50
2012,07,15,13,47,18.50
2012,07,15,13,48,18.50
2012,07,15,13,49,18.50
2012,07,15,13,50,18.40
2012,07,15,13,51,18.40
2012,07,15,13,52,18.40
2012,07,15,13,53,18.30
2012,07,15,13,54,18.30
2012,07,15,13,55,18.30
2012,07,15,13,56,18.30
2012,07,15,13,57,18.40
2012,07,15,13,58,18.40
2012,07,15,13,59,18.40
2012,07,15,14,00,18.40
2012,07,15,14,01,18.40
2012,07,15,14,02,18.50
2012,07,15,14,03,18.50
2012,07,15,14,04,18.50
2012,07,15,14,05,18.60
2012,07,15,14,06,18.60
2012,07,15,14,07,18.60
2012,07,15,14,08,18.70
2012,07,15,14,09,18.70
2012,07,15,14,10,18.80
2012,07,15,14,11,18.80
2012,07,15,14,12,18.90
2012,07,15,14,13,18.90
2012,07,15,14,14,19.00
2012,07,15,14,15,19.00
2012,07,15,14,16,19.00
2012,07,15,14,17,19.00
2012,07,15,14,18,19.10
2012,07,15,14,19,19.10
2012,07,15,14,20,19.10
2012,07,15,14,21,19.20
2012,07,15,14,22,19.20
2012,07,15,14,23,19.20
2012,07,15,14,24,19.20
2012,07,15,14,25,19.20
2012,07,15,14,26,19.30
2012,07,15,14,27,19.30
2012,07,15,14,28,19.30
2012,07,15,14,29,19.30
2012,07,15,14,30,19.20
2012,07,15,14,31,19.20
2012,07,15,14,32,19.20
2012,07,15,14,33,19.10
2012,07,15,14,34,19.10
2012,07,15,14,35,19.10
2012,07,15,14,36,19.10
2012,07,15,14,37,19.10
2012,07,15,14,38,19.10
2012,07,15,14,39,19.10
2012,07,15,14,40,19.10
2012,07,15,14,41,19.10
2012,07,15,14,42,19.20
2012,07,15,14,43,19.20
2012,07,15,14,44,19.10
2012,07,15,14,45,19.10
2012,07,15,14,46,19.10
2012,07,15,14,47,19.00
2012,07,15,14,48,19.00
2012,07,15,14,49,19.00
2012,07,15,14,50,19.00
2012,07,15,14,51,19.10
2012,07,15,14,52,19.10
2012,07,15,14,53,19.20
2012,07,15,14,54,19.30
2012,07,15,14,55,19.40
2012,07,15,14,56,19.50
2012,07,15,14,57,19.60
2012,07,15,14,58,19.70
2012,07,15,14,59,19.80
2012,07,15,15,00,19.90
2012,07,15,15,01,19.90
2012,07,15,15,02,19.90
2012,07,15,15,03,20.00
2012,07,15,15,04,20.10
2012,07,15,15,05,20.10
2012,07,15,15,06,20.10
2012,07,15,15,07,20.20
2012,07,15,15,08,20.20
2012,07,15,15,09,20.30
2012,07,15,15,10,20.20
2012,07,15,15,11,20.20
2012,07,15,15,12,20.20
2012,07,15,15,13,20.20
2012,07,15,15,14,20.30
2012,07,15,15,15,20.40
2012,07,15,15,16,20.40
2012,07,15,15,17,20.50
2012,07,15,15,18,20.60
2012,07,15,15,19,20.60
2012,07,15,15,20,20.70
2012,07,15,15,21,20.80
2012,07,15,15,22,20.80
2012,07,15,15,23,20.80
2012,07,15,15,24,20.90
2012,07,15,15,25,20.90
2012,07,15,15,26,20.90
2012,07,15,15,27,20.90
2012,07,15,15,28,20.90
2012,07,15,15,29,20.90
2012,07,15,15,30,20.90
2012,07,15,15,31,20.90
2012,07,15,15,32,20.90
2012,07,15,15,33,20.80
2012,07,15,15,34,20.80
2012,07,15,15,35,20.80
2012,07,15,15,36,20.70
2012,07,15,15,37,20.70
2012,07,15,15,38,20.70
2012,07,15,15,39,20.60
2012,07,15,15,40,20.60
2012,07,15,15,41,20.60
2012,07,15,15,42,20.60
2012,07,15,15,43,20.50
2012,07,15,15,44,20.50
2012,07,15,15,45,20.50
2012,07,15,15,46,20.50
2012,07,15,15,47,20.40
2012,07,15,15,48,20.40
2012,07,15,15,49,20.40
2012,07,15,15,50,20.30
2012,07,15,15,51,20.30
2012,07,15,15,52,20.30
2012,07,15,15,53,20.30
2012,07,15,15,54,20.30
2012,07,15,15,55,20.30
2012,07,15,15,56,20.30
2012,07,15,15,57,20.20
2012,07,15,15,58,20.20
2012,07,15,15,59,20.20
2012,07,15,16,00,20.20
2012,07,15,16,01,20.20
2012,07,15,16,02,20.20
2012,07,15,16,03,20.20
2012,07,15,16,04,20.20
2012,07,15,16,05,20.30
2012,07,15,16,06,20.30
2012,07,15,16,07,20.30
2012,07,15,16,08,20.40
2012,07,15,16,09,20.40
2012,07,15,16,10,20.40
2012,07,15,16,11,20.40
2012,07,15,16,12,20.40
2012,07,15,16,13,20.40
2012,07,15,16,14,20.40
2012,07,15,16,15,20.40
2012,07,15,16,16,20.40
2012,07,15,16,17,20.40
2012,07,15,16,18,20.40
2012,07,15,16,19,20.40
2012,07,15,16,20,20.50
2012,07,15,16,21,20.50
2012,07,15,16,22,20.50
2012,07,15,16,23,20.50
2012,07,15,16,24,20.60
2012,07,15,16,25,20.60
2012,07,15,16,26,20.70
2012,07,15,16,27,20.70
2012,07,15,16,28,20.80
2012,07,15,16,29,20.80
2012,07,15,16,30,20.90
2012,07,15,16,31,20.90
2012,07,15,16,32,20.90
2012,07,15,16,33,20.90
2012,07,15,16,34,20.90
2012,07,15,16,35,20.90
2012,07,15,16,36,21.00
2012,07,15,16,37,21.00
2012,07,15,16,38,21.00
2012,07,15,16,39,21.10
2012,07,15,16,40,21.10
2012,07,15,16,41,21.10
2012,07,15,16,42,21.10
2012,07,15,16,43,21.10
2012,07,15,16,44,21.10
2012,07,15,16,45,21.10
2012,07,15,16,46,21.20
2012,07,15,16,47,21.30
2012,07,15,16,48,21.40
2012,07,15,16,49,21.50
2012,07,15,16,50,21.50
2012,07,15,16,51,21.60
2012,07,15,16,52,21.70
2012,07,15,16,53,21.70
2012,07,15,16,54,21.80
2012,07,15,16,55,21.90
2012,07,15,16,56,21.90
2012,07,15,16,57,22.00
2012,07,15,16,58,22.00
2012,07,15,16,59,22.10
2012,07,15,17,00,22.20
2012,07,15,17,01,22.30
2012,07,15,17,02,22.30
2012,07,15,17,03,22.40
2012,07,15,17,04,22.40
2012,07,15,17,05,22.40
2012,07,15,17,06,22.40
2012,07,15,17,07,22.30
2012,07,15,17,08,22.30
2012,07,15,17,09,22.20
2012,07,15,17,10,22.30
2012,07,15,17,11,22.30
2012,07,15,17,12,22.30
2012,07,15,17,13,22.30
2012,07,15,17,14,22.40
2012,07,15,17,15,22.40
2012,07,15,17,16,22.40
2012,07,15,17,17,22.50
2012,07,15,17,18,22.60
2012,07,15,17,19,22.60